This is the latest recevied weather packets stored in our database for station/object N2ZVN. If no packets are shown the sender has not sent any weather packets the latest 1 day(s).
| Time | Temp. | Humidity | Pressure | Rain* | Wind** | Luminosity | Snow |
|---|---|---|---|---|---|---|---|
| 1777993391 | 20° C | 55% | 1003.2 hPa | 0 mm | 0.89 m/s, 283° | 242 W/m² | - |
| 1777993085 | 19.44° C | 54% | 1003.2 hPa | 0 mm | 2.24 m/s, 234° | 231 W/m² | - |
| 1777992784 | 19.44° C | 55% | 1003.4 hPa | 0 mm | 1.79 m/s, 291° | 193 W/m² | - |
| 1777992481 | 19.44° C | 57% | 1003.7 hPa | 0 mm | 1.34 m/s, 231° | 125 W/m² | - |
| 1777992179 | 19.44° C | 56% | 1003.5 hPa | 0 mm | 2.24 m/s, 239° | 117 W/m² | - |
| 1777991875 | 19.44° C | 57% | 1003.2 hPa | 0 mm | 0.89 m/s, 269° | 108 W/m² | - |
| 1777991573 | 19.44° C | 56% | 1003.5 hPa | 0 mm | 2.24 m/s, 257° | 124 W/m² | - |
| 1777991270 | 19.44° C | 57% | 1003.4 hPa | 0 mm | 1.34 m/s, 239° | 108 W/m² | - |
| 1777990967 | 19.44° C | 57% | 1003.2 hPa | 0 mm | 1.34 m/s, 237° | 121 W/m² | - |
| 1777990665 | 19.44° C | 56% | 1003.3 hPa | 0 mm | 2.24 m/s, 258° | 131 W/m² | - |
| 1777990362 | 19.44° C | 56% | 1003.4 hPa | 0 mm | 1.34 m/s, 252° | 130 W/m² | - |
| 1777990058 | 19.44° C | 56% | 1003.2 hPa | 0 mm | 2.24 m/s, 244° | 138 W/m² | - |
| 1777989755 | 19.44° C | 56% | 1003.2 hPa | 0 mm | 2.24 m/s, 249° | 107 W/m² | - |
| 1777989452 | 20° C | 56% | 1003.2 hPa | 0 mm | 1.34 m/s, 218° | 97 W/m² | - |
| 1777989148 | 20.56° C | 55% | 1003.3 hPa | 0 mm | 3.58 m/s, 236° | 155 W/m² | - |
| 1777988844 | 20.56° C | 55% | 1003 hPa | 0 mm | 1.34 m/s, 263° | 141 W/m² | - |
| 1777988542 | 20.56° C | 54% | 1002.8 hPa | 0 mm | 1.34 m/s, 232° | 170 W/m² | - |
| 1777988238 | 20.56° C | 54% | 1002.8 hPa | 0 mm | 0.45 m/s, 256° | 129 W/m² | - |
| 1777987935 | 21.11° C | 54% | 1002.5 hPa | 0 mm | 1.34 m/s, 264° | 124 W/m² | - |
| 1777987630 | 21.11° C | 54% | 1002.5 hPa | 0 mm | 0.89 m/s, 252° | 135 W/m² | - |
| 1777987328 | 20.56° C | 53% | 1002.4 hPa | 0 mm | 3.58 m/s, 250° | 203 W/m² | - |
| 1777987025 | 20.56° C | 54% | 1002.3 hPa | 0 mm | 0.45 m/s, 239° | 172 W/m² | - |
| 1777986723 | 20.56° C | 55% | 1002.1 hPa | 0 mm | 0.89 m/s, 231° | 159 W/m² | - |
| 1777986420 | 20.56° C | 54% | 1002.2 hPa | 0 mm | 2.24 m/s, 259° | 111 W/m² | - |
| 1777986119 | 20° C | 56% | 1002.5 hPa | 0 mm | 0.89 m/s, 238° | 240 W/m² | - |
* Rain latest hour (hover to see other rain measurements)
** Current wind speed in m/s (hover to see current wind gust speed)